Weather History for Tucson Davis Monthan, AZ

Change the Weather History Date:

Sunday, January 13, 2013

  Actual Average Record
Temperature  
Mean Temperature 35 °F -  
Max Temperature 45 °F 64 °F 78 °F (2000)
Min Temperature 25 °F 39 °F 21 °F (1963)
Degree Days  
Heating Degree Days 30    
Moisture  
Dew Point 9 °F    
Average Humidity 40    
Maximum Humidity 66    
Minimum Humidity 15    
Precipitation  
Precipitation 0.00 in - - ()
Sea Level Pressure  
Sea Level Pressure 30.06 in    
Wind  
Wind Speed 6 mph (South)    
Max Wind Speed 13 mph    
Max Gust Speed -    
Visibility 10 miles    
Events      
Averages and records for this station are not official NWS values.
T = Trace of Precipitation, MM = Missing Value Source: NWS Daily Summary

Daily Weather History Graph

Daily Weather History Graph

Search for Another Location

Airport:

Trip Planner

Search our weather history database for the weather conditions in past years. The results will help you decide how hot, cold, wet, or windy it might be!

Date:

Astronomy

Jan. 13, 2013 Rise Set
Actual Time 7:24 AM MST 5:40 PM MST
Civil Twilight 6:58 AM MST 6:06 PM MST
Nautical Twilight 6:28 AM MST 6:36 PM MST
Astronomical Twilight 5:58 AM MST 7:06 PM MST
Moon 8:35 AM MST (1/13) 8:10 PM MST (1/13)
Length of Visible Light 11h 08m
Length of Day
10h 15m
Waxing Crescent, 5% of the Moon is Illuminated
Jan 13
Waxing Crescent
Jan 18
First Quarter
Jan 26
Full
Feb 3
Last Quarter
Feb 10
New

Hourly Weather History & Observations

Time (MST) Temp. Windchill Dew Point Humidity Pressure Visibility Wind Dir Wind Speed Gust Speed Precip Events Conditions
12:58 AM 27.7 °F 21.3 °F 14.4 °F 57% 30.11 in 10.0 mi ESE 5.8 mph - N/A   Clear
1:58 AM 27.1 °F 18.9 °F 13.6 °F 57% 30.09 in 10.0 mi SE 8.1 mph - N/A   Clear
2:58 AM 25.3 °F 18.5 °F 15.3 °F 66% 30.10 in 10.0 mi SSE 5.8 mph - N/A   Clear
3:58 AM 25.7 °F 19.0 °F 12.6 °F 58% 30.09 in 10.0 mi SSE 5.8 mph - N/A   Clear
4:58 AM 25.0 °F 16.3 °F 10.8 °F 55% 30.08 in 10.0 mi SE 8.1 mph - N/A   Clear
5:58 AM 26.1 °F 18.4 °F 10.4 °F 52% 30.08 in 10.0 mi SE 6.9 mph - N/A   Clear
6:58 AM 25.5 °F 16.2 °F 9.9 °F 52% 30.11 in 10.0 mi SE 9.2 mph - N/A   Clear
7:58 AM 26.4 °F 19.8 °F 10.2 °F 51% 30.12 in 10.0 mi SE 5.8 mph - N/A   Clear
8:58 AM 31.3 °F 23.3 °F 8.8 °F 39% 30.12 in 10.0 mi SE 9.2 mph - N/A   Clear
9:58 AM 33.4 °F 27.3 °F 11.1 °F 40% 30.13 in 10.0 mi SSE 6.9 mph - N/A   Clear
10:58 AM 39.9 °F - 7.9 °F 27% 30.09 in 10.0 mi SSW 2.3 mph - N/A   Clear
11:58 AM 41.7 °F - 7.7 °F 25% 30.04 in 10.0 mi Variable 1.2 mph - N/A   Clear
12:58 PM 42.8 °F - 7.5 °F 24% 30.00 in 10.0 mi Calm Calm - N/A   Clear
1:58 PM 44.1 °F 40.1 °F 4.5 °F 20% 29.99 in 10.0 mi SW 6.9 mph - N/A   Clear
2:58 PM 44.8 °F - -1.5 °F 15% 29.99 in 10.0 mi NW 2.3 mph - N/A   Partly Cloudy
3:58 PM 45.5 °F 39.6 °F 3.2 °F 18% 29.99 in 10.0 mi NW 12.7 mph - N/A   Clear
4:58 PM 43.7 °F 37.3 °F 5.2 °F 20% 30.01 in 10.0 mi North 12.7 mph - N/A   Clear
5:58 PM 39.9 °F 34.5 °F 5.9 °F 24% 30.01 in 10.0 mi NW 8.1 mph - N/A   Clear
6:58 PM 37.6 °F 32.3 °F 8.2 °F 30% 30.03 in 10.0 mi NW 6.9 mph - N/A   Clear
7:58 PM 35.6 °F 31.7 °F 9.3 °F 34% 30.03 in 10.0 mi WNW 4.6 mph - N/A   Clear
8:58 PM 32.9 °F 28.5 °F 10.9 °F 40% 30.01 in 10.0 mi West 4.6 mph - N/A   Clear
9:58 PM 30.2 °F 25.4 °F 11.3 °F 45% 30.03 in 10.0 mi SSW 4.6 mph - N/A   Clear
10:58 PM 28.0 °F 21.7 °F 10.9 °F 49% 30.04 in 10.0 mi SW 5.8 mph - N/A   Clear
11:58 PM 27.9 °F 22.6 °F 13.1 °F 54% 30.04 in 10.0 mi South 4.6 mph - N/A   Clear